Cheraw, SC

3:37 AM EDT on July 28, 2017 (GMT -0400)
Cheraw

Weather History for KCQW - November, 2012

Change the Weather History Date:

Wednesday, November 21, 2012

  Actual Average (KFLO) Record (KFLO)
Temperature  
Mean Temperature 48 °F -  
Max Temperature 62 °F 64 °F 80 °F (1977)
Min Temperature 33 °F 41 °F 22 °F (1951)
Degree Days  
Heating Degree Days 18    
Moisture  
Dew Point 37 °F    
Average Humidity 74    
Maximum Humidity 100    
Minimum Humidity 32    
Precipitation  
Precipitation 0.00 in - - ()
Sea Level Pressure  
Sea Level Pressure 30.13 in    
Wind  
Wind Speed 6 mph (North)    
Max Wind Speed 23 mph    
Max Gust Speed 34 mph    
Visibility 8 miles    
Events Fog    
Averages and records for this station are not official NWS values.
T = Trace of Precipitation, MM = Missing Value Source: NWS Daily Summary

Daily Weather History Graph

Daily Weather History Graph

Search for Another Location

Airport or City:

Trip Planner

Search our weather history database for the weather conditions in past years. The results will help you decide how hot, cold, wet, or windy it might be!

Date:

Astronomy

Nov. 21, 2012 Rise Set
Actual Time 6:59 AM EST 5:11 PM EST
Civil Twilight 6:32 AM EST 5:38 PM EST
Nautical Twilight 6:02 AM EST 6:09 PM EST
Astronomical Twilight 5:31 AM EST 6:39 PM EST
Moon 1:13 PM EST (11/21) 12:32 AM EST (11/21)
Length of Visible Light 11h 05m
Length of Day
10h 11m
First Quarter, 61% of the Moon is Illuminated
Nov 21
First Quarter
Nov 28
Full
Dec 6
Last Quarter
Dec 13
New
Dec 20
First Quarter

Hourly Weather History & Observations

Time (EST) Temp. Windchill Dew Point Humidity Pressure Visibility Wind Dir Wind Speed Gust Speed Precip Events Conditions
12:15 AM 39.2 °F - 39.2 °F 100% 30.10 in 6.0 mi Calm Calm - N/A   Clear
12:55 AM 39.2 °F - 39.2 °F 100% 30.09 in 1.5 mi Calm Calm - N/A   Clear
1:15 AM 39.2 °F - 39.2 °F 100% 30.09 in 0.2 mi Calm Calm - N/A Fog Fog
1:35 AM 37.4 °F 32.8 °F 37.4 °F 100% 30.09 in 7.0 mi West 5.8 mph - N/A   Clear
1:55 AM 37.4 °F - 37.4 °F 100% 30.09 in 7.0 mi Calm Calm - N/A   Clear
2:15 AM 39.2 °F - 39.2 °F 100% 30.09 in 9.0 mi Calm Calm - N/A   Clear
2:35 AM 39.2 °F - 39.2 °F 100% 30.09 in 6.0 mi Calm Calm - N/A   Clear
2:55 AM 37.4 °F - 37.4 °F 100% 30.09 in 1.5 mi Calm Calm - N/A   Clear
3:15 AM 39.2 °F - 39.2 °F 100% 30.09 in 3.0 mi Calm Calm - N/A   Clear
3:35 AM 37.4 °F - 37.4 °F 100% 30.09 in 9.0 mi Calm Calm - N/A   Clear
3:55 AM 35.6 °F - 35.6 °F 100% 30.09 in 7.0 mi Calm Calm - N/A   Clear
4:15 AM 35.6 °F 32.8 °F 35.6 °F 100% 30.10 in 7.0 mi North 3.5 mph - N/A   Clear
4:55 AM 35.6 °F - 35.6 °F 100% 30.10 in 7.0 mi Calm Calm - N/A   Clear
5:15 AM 35.6 °F - 35.6 °F 100% 30.10 in 5.0 mi Calm Calm - N/A   Clear
5:35 AM 33.8 °F - 33.8 °F 100% 30.11 in 6.0 mi Calm Calm - N/A   Clear
5:55 AM 35.6 °F - 35.6 °F 100% 30.11 in 4.0 mi Calm Calm - N/A   Clear
6:15 AM 35.6 °F - 35.6 °F 100% 30.11 in 3.0 mi Calm Calm - N/A   Clear
6:55 AM 35.6 °F 32.8 °F 35.6 °F 100% 30.13 in 0.2 mi NNE 3.5 mph - N/A Fog Fog
7:15 AM 35.6 °F 31.7 °F 35.6 °F 100% 30.14 in 3.0 mi NNE 4.6 mph - N/A   Clear
7:55 AM 41.0 °F 37.1 °F 41.0 °F 100% 30.14 in 5.0 mi NNE 5.8 mph - N/A   Clear
8:15 AM 42.8 °F 35.4 °F 42.8 °F 100% 30.15 in 9.0 mi North 15.0 mph 19.6 mph N/A   Clear
8:35 AM 42.8 °F 35.4 °F 42.8 °F 100% 30.15 in 9.0 mi North 15.0 mph - N/A   Clear
8:55 AM 46.4 °F 42.4 °F 46.4 °F 100% 30.16 in 10.0 mi North 8.1 mph 17.3 mph N/A   Clear
9:15 AM 48.2 °F - 46.4 °F 93% 30.16 in 10.0 mi NNE 12.7 mph 20.7 mph N/A   Clear
9:55 AM 50.0 °F - 44.6 °F 82% 30.17 in 10.0 mi North 16.1 mph 20.7 mph N/A   Clear
10:15 AM 50.0 °F - 44.6 °F 82% 30.17 in 10.0 mi North 12.7 mph 18.4 mph N/A   Clear
10:35 AM 53.6 °F - 44.6 °F 72% 30.16 in 10.0 mi North 17.3 mph 26.5 mph N/A   Clear
10:55 AM 53.6 °F - 44.6 °F 72% 30.16 in 10.0 mi North 18.4 mph 27.6 mph N/A   Clear
11:15 AM 55.4 °F - 44.6 °F 67% 30.15 in 10.0 mi North 23.0 mph 32.2 mph N/A   Clear
11:35 AM 55.4 °F - 44.6 °F 67% 30.15 in 10.0 mi NNE 18.4 mph 28.8 mph N/A   Clear
11:55 AM 57.2 °F - 42.8 °F 59% 30.14 in 10.0 mi North 16.1 mph 31.1 mph N/A   Clear
12:15 PM 57.2 °F - 39.2 °F 51% 30.12 in 10.0 mi North 17.3 mph 24.2 mph N/A   Clear
12:35 PM 59.0 °F - 39.2 °F 48% 30.12 in 10.0 mi North 16.1 mph 28.8 mph N/A   Clear
12:55 PM 57.2 °F - 37.4 °F 48% 30.12 in 10.0 mi North 19.6 mph 34.5 mph N/A   Clear
1:15 PM 59.0 °F - 37.4 °F 45% 30.11 in 10.0 mi North 17.3 mph 26.5 mph N/A   Clear
1:55 PM 60.8 °F - 35.6 °F 39% 30.10 in 10.0 mi North 21.9 mph 31.1 mph N/A   Clear
2:15 PM 62.6 °F - 33.8 °F 34% 30.10 in 10.0 mi North 12.7 mph 27.6 mph N/A   Clear
2:35 PM 62.6 °F - 33.8 °F 34% 30.10 in 10.0 mi North 21.9 mph 29.9 mph N/A   Clear
2:55 PM 62.6 °F - 33.8 °F 34% 30.09 in 10.0 mi NNE 20.7 mph 25.3 mph N/A   Clear
3:15 PM 62.6 °F - 33.8 °F 34% 30.09 in 10.0 mi NNE 19.6 mph 31.1 mph N/A   Clear
3:35 PM 62.6 °F - 32.0 °F 32% 30.09 in 10.0 mi North 12.7 mph 21.9 mph N/A   Clear
3:55 PM 60.8 °F - 32.0 °F 34% 30.10 in 10.0 mi North 15.0 mph 25.3 mph N/A   Clear
4:15 PM 60.8 °F - 32.0 °F 34% 30.10 in 10.0 mi North 13.8 mph - N/A   Clear
4:55 PM 57.2 °F - 33.8 °F 41% 30.11 in 10.0 mi North 8.1 mph - N/A   Clear
5:15 PM 51.8 °F - 35.6 °F 54% 30.11 in 10.0 mi North 6.9 mph - N/A   Clear
5:35 PM 48.2 °F - 35.6 °F 62% 30.12 in 10.0 mi NNW 6.9 mph - N/A   Clear
5:55 PM 48.2 °F - 35.6 °F 62% 30.12 in 10.0 mi NNW 6.9 mph - N/A   Clear
6:15 PM 48.2 °F - 35.6 °F 62% 30.12 in 10.0 mi North 8.1 mph - N/A   Clear
6:35 PM 48.2 °F - 33.8 °F 58% 30.13 in 10.0 mi North 5.8 mph - N/A   Clear
6:55 PM 48.2 °F - 33.8 °F 58% 30.13 in 10.0 mi NE 3.5 mph - N/A   Clear
7:15 PM 46.4 °F 44.3 °F 35.6 °F 66% 30.14 in 10.0 mi North 4.6 mph - N/A   Clear
7:35 PM 48.2 °F - 35.6 °F 62% 30.15 in 10.0 mi NE 3.5 mph - N/A   Clear
7:55 PM 46.4 °F 44.3 °F 35.6 °F 66% 30.15 in 10.0 mi North 4.6 mph - N/A   Clear
8:15 PM 46.4 °F 45.2 °F 33.8 °F 62% 30.15 in 10.0 mi NNE 3.5 mph - N/A   Clear
8:35 PM 46.4 °F - 35.6 °F 66% 30.15 in 10.0 mi Calm Calm - N/A   Clear
8:55 PM 44.6 °F - 35.6 °F 71% 30.16 in 10.0 mi Calm Calm - N/A   Clear
9:15 PM 44.6 °F 42.2 °F 33.8 °F 66% 30.16 in 10.0 mi NNE 4.6 mph - N/A   Clear
9:55 PM 41.0 °F 37.1 °F 35.6 °F 81% 30.17 in 10.0 mi NE 5.8 mph - N/A   Clear
10:15 PM 42.8 °F 40.1 °F 35.6 °F 76% 30.17 in 10.0 mi NNE 4.6 mph - N/A   Clear
10:35 PM 42.8 °F 40.1 °F 33.8 °F 70% 30.17 in 10.0 mi NNE 4.6 mph - N/A   Clear
10:55 PM 42.8 °F 39.3 °F 33.8 °F 70% 30.17 in 10.0 mi North 5.8 mph - N/A   Clear
11:15 PM 42.8 °F 37.0 °F 33.8 °F 70% 30.17 in 10.0 mi North 10.4 mph - N/A   Clear
11:35 PM 42.8 °F 38.0 °F 33.8 °F 70% 30.17 in 10.0 mi North 8.1 mph 16.1 mph N/A   Clear
11:55 PM 42.8 °F 37.0 °F 33.8 °F 70% 30.17 in 10.0 mi North 10.4 mph 16.1 mph N/A   Clear